Time,TemperatureF,DewpointF,PressureIn,WindDirection,WindDirectionDegrees,WindSpeedMPH,WindSpeedGustMPH,Humidity,HourlyPrecipIn,Conditions,Clouds,dailyrainin,SoftwareType,DateUTC
2013-01-16 00:22:00,30.7,22.0,30.22,ENE,65,0.0,0.0,69,0.00,,,0.00,weatherlink.com 1.10,2013-01-16 05:22:00,
2013-01-16 00:37:00,30.3,21.0,30.22,ENE,65,0.0,0.0,69,0.00,,,0.00,weatherlink.com 1.10,2013-01-16 05:37:00,
2013-01-16 00:52:00,30.3,22.0,30.22,ENE,65,0.0,0.0,72,0.00,,,0.00,weatherlink.com 1.10,2013-01-16 05:52:00,
2013-01-16 01:07:00,30.1,23.0,30.21,ENE,65,0.0,0.0,74,0.00,,,0.00,weatherlink.com 1.10,2013-01-16 06:07:00,
2013-01-16 01:22:00,30.1,24.0,30.21,ENE,65,0.0,0.0,77,0.00,,,0.00,weatherlink.com 1.10,2013-01-16 06:22:00,
2013-01-16 01:37:00,30.3,24.0,30.21,ENE,65,0.0,0.0,76,0.00,,,0.00,weatherlink.com 1.10,2013-01-16 06:37:00,
2013-01-16 01:52:00,30.7,22.0,30.21,ENE,65,0.0,0.0,71,0.00,,,0.00,weatherlink.com 1.10,2013-01-16 06:52:00,
2013-01-16 02:07:00,31.2,23.0,30.20,SSW,213,0.0,1.0,71,0.00,,,0.00,weatherlink.com 1.10,2013-01-16 07:07:00,
2013-01-16 02:22:00,31.2,23.0,30.20,West,266,0.0,1.0,72,0.00,,,0.00,weatherlink.com 1.10,2013-01-16 07:22:00,
2013-01-16 02:37:00,31.0,25.0,30.20,NNW,348,0.0,2.0,78,0.00,,,0.00,weatherlink.com 1.10,2013-01-16 07:37:00,
2013-01-16 02:52:00,30.1,24.0,30.19,NNW,348,0.0,0.0,79,0.00,,,0.00,weatherlink.com 1.10,2013-01-16 07:52:00,
2013-01-16 03:07:00,30.8,24.0,30.20,NNW,347,0.0,0.0,77,0.00,,,0.00,weatherlink.com 1.10,2013-01-16 08:07:00,
2013-01-16 03:22:00,30.6,22.0,30.19,West,271,0.0,1.0,71,0.00,,,0.00,weatherlink.com 1.10,2013-01-16 08:22:00,
2013-01-16 03:37:00,31.1,23.0,30.17,SE,124,0.0,2.0,72,0.00,,,0.00,weatherlink.com 1.10,2013-01-16 08:37:00,
2013-01-16 03:52:00,31.1,21.0,30.15,SW,224,0.0,3.0,66,0.00,,,0.00,weatherlink.com 1.10,2013-01-16 08:52:00,
2013-01-16 04:08:00,31.0,21.0,30.14,ENE,73,0.0,1.0,67,0.00,,,0.00,weatherlink.com 1.10,2013-01-16 09:08:00,
2013-01-16 04:23:00,30.8,21.0,30.13,WSW,243,0.0,2.0,67,0.00,,,0.00,weatherlink.com 1.10,2013-01-16 09:23:00,
2013-01-16 04:38:00,30.8,21.0,30.13,WSW,244,0.0,1.0,67,0.00,,,0.00,weatherlink.com 1.10,2013-01-16 09:38:00,
2013-01-16 04:53:00,30.6,22.0,30.13,WSW,244,0.0,1.0,70,0.00,,,0.00,weatherlink.com 1.10,2013-01-16 09:53:00,
2013-01-16 05:08:00,30.1,23.0,30.12,WSW,238,0.0,0.0,76,0.00,,,0.00,weatherlink.com 1.10,2013-01-16 10:08:00,
2013-01-16 05:23:00,29.0,25.0,30.12,WSW,238,0.0,1.0,85,0.00,,,0.00,weatherlink.com 1.10,2013-01-16 10:23:00,
2013-01-16 05:38:00,28.2,26.0,30.13,WSW,238,0.0,0.0,90,0.00,,,0.00,weatherlink.com 1.10,2013-01-16 10:38:00,
2013-01-16 05:53:00,27.8,26.0,30.12,WSW,238,0.0,0.0,92,0.00,,,0.00,weatherlink.com 1.10,2013-01-16 10:53:00,
2013-01-16 06:08:00,27.6,26.0,30.12,WSW,238,0.0,1.0,93,0.00,,,0.00,weatherlink.com 1.10,2013-01-16 11:08:00,
2013-01-16 06:23:00,27.6,26.0,30.10,WSW,238,0.0,0.0,93,0.00,,,0.00,weatherlink.com 1.10,2013-01-16 11:23:00,
2013-01-16 06:38:00,27.7,26.0,30.10,WSW,238,0.0,0.0,94,0.00,,,0.00,weatherlink.com 1.10,2013-01-16 11:38:00,
2013-01-16 06:53:00,27.7,26.0,30.10,WSW,238,0.0,0.0,94,0.00,,,0.00,weatherlink.com 1.10,2013-01-16 11:53:00,
2013-01-16 07:08:00,27.8,26.0,30.10,WSW,238,0.0,0.0,94,0.00,,,0.00,weatherlink.com 1.10,2013-01-16 12:08:00,
2013-01-16 07:23:00,27.8,27.0,30.09,WSW,238,0.0,0.0,95,0.00,,,0.00,weatherlink.com 1.10,2013-01-16 12:23:00,
2013-01-16 07:38:00,27.8,27.0,30.09,WSW,238,0.0,0.0,95,0.00,,,0.00,weatherlink.com 1.10,2013-01-16 12:38:00,
2013-01-16 07:53:00,27.8,27.0,30.08,WSW,238,0.0,0.0,95,0.00,,,0.00,weatherlink.com 1.10,2013-01-16 12:53:00,
2013-01-16 08:08:00,28.0,27.0,30.07,WSW,238,0.0,0.0,94,0.00,,,0.00,weatherlink.com 1.10,2013-01-16 13:08:00,
2013-01-16 08:23:00,28.0,27.0,30.07,WSW,238,0.0,0.0,95,0.00,,,0.00,weatherlink.com 1.10,2013-01-16 13:23:00,
2013-01-16 08:38:00,28.1,27.0,30.07,WSW,238,0.0,0.0,95,0.00,,,0.00,weatherlink.com 1.10,2013-01-16 13:38:00,
2013-01-16 08:53:00,28.3,27.0,30.06,WSW,238,0.0,0.0,95,0.00,,,0.00,weatherlink.com 1.10,2013-01-16 13:53:00,
2013-01-16 09:08:00,28.5,27.0,30.05,WSW,238,0.0,0.0,95,0.00,,,0.00,weatherlink.com 1.10,2013-01-16 14:08:00,
2013-01-16 09:23:00,29.0,28.0,30.03,WSW,238,0.0,0.0,94,0.00,,,0.00,weatherlink.com 1.10,2013-01-16 14:23:00,
2013-01-16 09:38:00,29.8,28.0,30.02,WSW,238,0.0,0.0,93,0.00,,,0.00,weatherlink.com 1.10,2013-01-16 14:38:00,
2013-01-16 09:53:00,29.9,28.0,30.00,WSW,238,0.0,0.0,93,0.00,,,0.00,weatherlink.com 1.10,2013-01-16 14:53:00,
2013-01-16 10:08:00,29.8,28.0,29.98,SSW,203,0.0,2.0,93,0.00,,,0.00,weatherlink.com 1.10,2013-01-16 15:08:00,
2013-01-16 10:23:00,30.0,29.0,29.97,SE,127,0.0,1.0,94,0.00,,,0.00,weatherlink.com 1.10,2013-01-16 15:23:00,
2013-01-16 10:38:00,30.4,29.0,29.98,ENE,63,0.0,1.0,95,0.00,,,0.00,weatherlink.com 1.10,2013-01-16 15:38:00,
2013-01-16 10:53:00,30.3,29.0,29.98,ENE,76,1.0,1.0,95,0.00,,,0.00,weatherlink.com 1.10,2013-01-16 15:53:00,
2013-01-16 11:08:00,30.4,29.0,29.96,ENE,58,0.0,2.0,95,0.00,,,0.00,weatherlink.com 1.10,2013-01-16 16:08:00,
2013-01-16 11:23:00,30.6,29.0,29.94,NE,55,0.0,4.0,95,0.00,,,0.00,weatherlink.com 1.10,2013-01-16 16:23:00,
2013-01-16 11:38:00,31.0,30.0,29.93,ENE,69,0.0,1.0,95,0.00,,,0.00,weatherlink.com 1.10,2013-01-16 16:38:00,
2013-01-16 11:53:00,31.1,30.0,29.92,SSE,159,0.0,1.0,95,0.00,,,0.00,weatherlink.com 1.10,2013-01-16 16:53:00,
2013-01-16 12:08:00,31.4,30.0,29.92,ENE,69,0.0,1.0,95,0.00,,,0.00,weatherlink.com 1.10,2013-01-16 17:08:00,
2013-01-16 12:24:00,31.7,31.0,29.91,ENE,69,0.0,0.0,95,0.00,,,0.00,weatherlink.com 1.10,2013-01-16 17:24:00,
2013-01-16 12:39:00,31.6,30.0,29.89,ENE,59,0.0,1.0,95,0.00,,,0.00,weatherlink.com 1.10,2013-01-16 17:39:00,
2013-01-16 12:54:00,31.5,31.0,29.90,NE,56,0.0,1.0,96,0.00,,,0.00,weatherlink.com 1.10,2013-01-16 17:54:00,
2013-01-16 13:09:00,31.4,30.0,29.91,ENE,57,0.0,1.0,96,0.00,,,0.00,weatherlink.com 1.10,2013-01-16 18:09:00,
2013-01-16 13:24:00,31.5,31.0,29.89,ENE,58,0.0,1.0,96,0.00,,,0.00,weatherlink.com 1.10,2013-01-16 18:24:00,
2013-01-16 13:39:00,31.7,31.0,29.87,East,101,0.0,0.0,95,0.00,,,0.00,weatherlink.com 1.10,2013-01-16 18:39:00,
2013-01-16 13:54:00,31.8,31.0,29.85,SW,230,0.0,1.0,95,0.00,,,0.00,weatherlink.com 1.10,2013-01-16 18:54:00,
2013-01-16 14:09:00,31.8,31.0,29.81,SW,225,0.0,0.0,95,0.00,,,0.00,weatherlink.com 1.10,2013-01-16 19:09:00,
2013-01-16 14:24:00,31.8,31.0,29.81,SSW,193,0.0,0.0,95,0.00,,,0.00,weatherlink.com 1.10,2013-01-16 19:24:00,
2013-01-16 14:39:00,31.5,30.0,29.83,NE,35,0.0,0.0,95,0.00,,,0.00,weatherlink.com 1.10,2013-01-16 19:39:00,
2013-01-16 14:54:00,31.5,31.0,29.85,NE,45,0.0,0.0,96,0.00,,,0.00,weatherlink.com 1.10,2013-01-16 19:54:00,
2013-01-16 15:09:00,31.4,30.0,29.84,ENE,65,0.0,0.0,96,0.00,,,0.00,weatherlink.com 1.10,2013-01-16 20:09:00,
2013-01-16 15:24:00,31.4,31.0,29.83,ENE,63,0.0,0.0,97,0.00,,,0.00,weatherlink.com 1.10,2013-01-16 20:24:00,
2013-01-16 15:39:00,31.5,31.0,29.83,ENE,59,0.0,0.0,97,0.00,,,0.00,weatherlink.com 1.10,2013-01-16 20:39:00,
2013-01-16 15:54:00,31.4,31.0,29.83,ENE,60,0.0,0.0,97,0.00,,,0.00,weatherlink.com 1.10,2013-01-16 20:54:00,
2013-01-16 16:09:00,31.3,31.0,29.82,NE,53,0.0,0.0,97,0.00,,,0.00,weatherlink.com 1.10,2013-01-16 21:09:00,
2013-01-16 16:24:00,31.3,31.0,29.82,NE,49,0.0,0.0,97,0.00,,,0.00,weatherlink.com 1.10,2013-01-16 21:24:00,
2013-01-16 16:39:00,31.0,30.0,29.83,ENE,62,0.0,0.0,97,0.00,,,0.00,weatherlink.com 1.10,2013-01-16 21:39:00,
2013-01-16 16:54:00,30.9,30.0,29.82,NE,41,0.0,0.0,97,0.00,,,0.00,weatherlink.com 1.10,2013-01-16 21:54:00,
2013-01-16 17:09:00,30.9,30.0,29.83,NE,53,0.0,0.0,97,0.00,,,0.00,weatherlink.com 1.10,2013-01-16 22:09:00,
2013-01-16 17:24:00,30.9,30.0,29.82,ENE,68,0.0,0.0,97,0.00,,,0.00,weatherlink.com 1.10,2013-01-16 22:24:00,
2013-01-16 17:39:00,30.9,30.0,29.82,ENE,67,0.0,0.0,97,0.00,,,0.00,weatherlink.com 1.10,2013-01-16 22:39:00,
2013-01-16 17:54:00,30.8,30.0,29.83,NE,53,0.0,0.0,97,0.00,,,0.00,weatherlink.com 1.10,2013-01-16 22:54:00,
2013-01-16 18:09:00,30.9,30.0,29.82,NE,53,0.0,0.0,97,0.00,,,0.00,weatherlink.com 1.10,2013-01-16 23:09:00,
2013-01-16 18:24:00,30.9,30.0,29.83,NE,55,0.0,0.0,97,0.00,,,0.00,weatherlink.com 1.10,2013-01-16 23:24:00,
2013-01-16 18:39:00,30.9,30.0,29.82,NE,51,0.0,0.0,97,0.00,,,0.00,weatherlink.com 1.10,2013-01-16 23:39:00,
2013-01-16 18:54:00,30.9,30.0,29.81,NE,51,0.0,0.0,97,0.00,,,0.00,weatherlink.com 1.10,2013-01-16 23:54:00,
2013-01-16 19:09:00,30.9,30.0,29.80,NE,51,0.0,0.0,97,0.00,,,0.00,weatherlink.com 1.10,2013-01-17 00:09:00,
2013-01-16 19:24:00,30.8,30.0,29.80,NE,51,0.0,0.0,97,0.00,,,0.00,weatherlink.com 1.10,2013-01-17 00:24:00,
2013-01-16 19:39:00,30.8,30.0,29.81,NE,51,0.0,0.0,97,0.00,,,0.00,weatherlink.com 1.10,2013-01-17 00:39:00,
2013-01-16 19:54:00,30.9,30.0,29.82,ENE,65,0.0,0.0,98,0.00,,,0.00,weatherlink.com 1.10,2013-01-17 00:54:00,
2013-01-16 20:09:00,30.9,30.0,29.81,NE,56,0.0,0.0,98,0.00,,,0.00,weatherlink.com 1.10,2013-01-17 01:09:00,
2013-01-16 20:24:00,30.9,30.0,29.81,NE,56,0.0,0.0,98,0.00,,,0.00,weatherlink.com 1.10,2013-01-17 01:24:00,
2013-01-16 20:39:00,30.9,30.0,29.81,NE,56,0.0,0.0,98,0.00,,,0.00,weatherlink.com 1.10,2013-01-17 01:39:00,
2013-01-16 20:54:00,30.9,30.0,29.82,NE,56,0.0,0.0,98,0.00,,,0.00,weatherlink.com 1.10,2013-01-17 01:54:00,
2013-01-16 21:09:00,30.8,30.0,29.81,NE,56,0.0,0.0,98,0.00,,,0.00,weatherlink.com 1.10,2013-01-17 02:09:00,
2013-01-16 21:24:00,30.9,30.0,29.80,NE,56,0.0,0.0,98,0.00,,,0.00,weatherlink.com 1.10,2013-01-17 02:24:00,
2013-01-16 21:39:00,30.8,30.0,29.80,NE,55,0.0,0.0,98,0.00,,,0.00,weatherlink.com 1.10,2013-01-17 02:39:00,
2013-01-16 21:54:00,30.7,30.0,29.80,NE,55,0.0,0.0,97,0.00,,,0.00,weatherlink.com 1.10,2013-01-17 02:54:00,
2013-01-16 22:09:00,30.7,30.0,29.80,NE,55,0.0,0.0,97,0.00,,,0.00,weatherlink.com 1.10,2013-01-17 03:09:00,
2013-01-16 22:24:00,30.8,30.0,29.80,NE,55,0.0,0.0,97,0.00,,,0.00,weatherlink.com 1.10,2013-01-17 03:24:00,
2013-01-16 22:39:00,31.0,30.0,29.80,NE,38,0.0,0.0,97,0.00,,,0.00,weatherlink.com 1.10,2013-01-17 03:39:00,
2013-01-16 22:54:00,31.0,30.0,29.79,NE,38,0.0,0.0,97,0.00,,,0.00,weatherlink.com 1.10,2013-01-17 03:54:00,
2013-01-16 23:09:00,31.3,31.0,29.80,NE,38,0.0,0.0,97,0.00,,,0.00,weatherlink.com 1.10,2013-01-17 04:09:00,
2013-01-16 23:24:00,31.2,31.0,29.79,NNE,30,0.0,0.0,97,0.00,,,0.00,weatherlink.com 1.10,2013-01-17 04:24:00,
2013-01-16 23:39:00,31.0,30.0,29.79,NNE,21,0.0,0.0,97,0.00,,,0.00,weatherlink.com 1.10,2013-01-17 04:39:00,
2013-01-16 23:54:00,30.7,30.0,29.79,NNE,21,0.0,0.0,97,0.00,,,0.00,weatherlink.com 1.10,2013-01-17 04:54:00,